{"data":{"norad_id":53059,"epoch":"2026-05-24T23:11:39.677280Z","epoch_age_seconds":71950,"freshness":"FRESH","line1":"1 53059U 22077S   26144.96643145 -.00000115  00000+0 -39260-5 0  9998","line2":"2 53059  97.4491 324.8899 0000881 141.1977 218.9314 15.05656000212380","mean_motion":15.05656,"eccentricity":8.81e-5,"inclination_deg":97.4491,"raan_deg":324.8899,"arg_perigee_deg":141.1977,"mean_anomaly_deg":218.9314,"bstar":-3.926e-6,"rev_number":21238,"period_min":95.639375793674,"perigee_km":548.88242551413,"apogee_km":550.10307387603,"semimajor_km":6927.6297496951,"source":"CELESTRAK","updated_at":"2026-05-25T13:38:17.289121Z"}}